• In United Kingdom
  • List of Countries
  • For 7 days
  • Water Temperature
  • Satellite Maps
  • Weather Map
  • Weather Widgets
  • user-avatar
    Login

    Hourly Weather Pabna

    Today, 17 July, Tuesday

    Time Temperature Precipitation Wind Pressure Humidity
    00:00 +30°C° 0 mm 5 mps 746 mmHg 82%
    01:00 +30°C° 0 mm 5 mps 746 mmHg 83%
    02:00 +30°C° 0 mm 5 mps 746 mmHg 84%
    03:00 +30°C° 0 mm 5 mps 746 mmHg 85%
    04:00 +29°C° 0.1 mm 5 mps 746 mmHg 85%
    05:00 +29°C° 0.1 mm 5 mps 746 mmHg 86%
    06:00 +29°C° 0 mm 3 mps 746 mmHg 89%
    07:00 +30°C° 0.3 mm 4 mps 747 mmHg 83%
    08:00 +33°C° 0.3 mm 5 mps 747 mmHg 78%
    09:00 +34°C° 0.3 mm 5 mps 747 mmHg 73%
    10:00 +35°C° 1.1 mm 6 mps 746 mmHg 69%
    11:00 +36°C° 1.1 mm 6 mps 746 mmHg 66%
    12:00 +36°C° 0 mm 7 mps 747 mmHg 65%
    13:00 +36°C° 0.2 mm 6 mps 746 mmHg 64%
    14:00 +36°C° 0.2 mm 6 mps 745 mmHg 63%
    15:00 +37°C° 0.2 mm 5 mps 745 mmHg 61%
    16:00 +36°C° 0.4 mm 5 mps 745 mmHg 65%
    17:00 +35°C° 0.4 mm 5 mps 745 mmHg 68%
    18:00 +35°C° 0.4 mm 5 mps 744 mmHg 71%
    19:00 +34°C° 0.1 mm 4 mps 745 mmHg 74%
    20:00 +33°C° 0.1 mm 4 mps 745 mmHg 77%
    21:00 +32°C° 0.1 mm 4 mps 746 mmHg 80%
    22:00 +32°C° 0 mm 4 mps 746 mmHg 81%
    23:00 +32°C° 0 mm 5 mps 747 mmHg 83%

    Tomorrow, 18 July, Wednesday

    Time Temperature Precipitation Wind Pressure Humidity
    00:00 +30°C° 0 mm 5 mps 747 mmHg 84%
    01:00 +30°C° 0 mm 4 mps 747 mmHg 85%
    02:00 +30°C° 0 mm 4 mps 747 mmHg 86%
    03:00 +30°C° 0 mm 3 mps 746 mmHg 88%
    04:00 +29°C° 0 mm 3 mps 746 mmHg 88%
    05:00 +29°C° 0 mm 3 mps 747 mmHg 88%
    06:00 +29°C° 0 mm 3 mps 747 mmHg 88%
    07:00 +32°C° 0 mm 4 mps 747 mmHg 83%
    08:00 +33°C° 0 mm 4 mps 747 mmHg 77%
    09:00 +34°C° 0 mm 5 mps 748 mmHg 71%
    10:00 +35°C° 0.3 mm 5 mps 747 mmHg 67%
    11:00 +36°C° 0.3 mm 5 mps 747 mmHg 64%
    12:00 +37°C° 0.3 mm 5 mps 747 mmHg 60%
    13:00 +39°C° 0.8 mm 5 mps 746 mmHg 59%
    14:00 +39°C° 0.8 mm 5 mps 745 mmHg 58%
    15:00 +39°C° 0.8 mm 5 mps 744 mmHg 57%
    16:00 +38°C° 0.3 mm 4 mps 744 mmHg 60%
    17:00 +37°C° 0.3 mm 4 mps 744 mmHg 62%
    18:00 +36°C° 0.3 mm 3 mps 744 mmHg 65%
    19:00 +36°C° 0 mm 3 mps 744 mmHg 68%
    20:00 +35°C° 0 mm 3 mps 745 mmHg 71%
    21:00 +34°C° 0 mm 3 mps 746 mmHg 74%
    22:00 +33°C° 0 mm 3 mps 746 mmHg 76%
    23:00 +33°C° 0 mm 3 mps 746 mmHg 78%

    Day after tomorrow, 19 July, Thursday

    Time Temperature Precipitation Wind Pressure Humidity
    00:00 +31°C° 0 mm 3 mps 746 mmHg 80%
    01:00 +31°C° 0 mm 3 mps 746 mmHg 81%
    02:00 +30°C° 0 mm 3 mps 746 mmHg 83%
    03:00 +30°C° 0 mm 2 mps 746 mmHg 85%
    04:00 +30°C° 0 mm 2 mps 746 mmHg 85%
    05:00 +30°C° 0 mm 2 mps 746 mmHg 86%
    06:00 +30°C° 0 mm 2 mps 746 mmHg 87%
    07:00 +31°C° 0 mm 2 mps 746 mmHg 81%
    08:00 +33°C° 0 mm 3 mps 747 mmHg 75%
    09:00 +34°C° 0 mm 3 mps 747 mmHg 69%
    10:00 +35°C° 0 mm 3 mps 747 mmHg 65%
    11:00 +36°C° 0 mm 3 mps 747 mmHg 60%
    12:00 +37°C° 0 mm 3 mps 746 mmHg 55%
    13:00 +38°C° 0 mm 3 mps 745 mmHg 54%
    14:00 +38°C° 0 mm 3 mps 745 mmHg 53%
    15:00 +38°C° 0 mm 3 mps 744 mmHg 52%
    16:00 +38°C° 0 mm 3 mps 744 mmHg 54%
    17:00 +38°C° 0 mm 2 mps 743 mmHg 57%
    18:00 +37°C° 0 mm 2 mps 743 mmHg 60%
    19:00 +36°C° 0 mm 2 mps 744 mmHg 61%
    20:00 +36°C° 0 mm 2 mps 744 mmHg 63%
    21:00 +35°C° 0 mm 2 mps 745 mmHg 65%
    22:00 +34°C° 0 mm 2 mps 745 mmHg 68%
    23:00 +34°C° 0 mm 3 mps 745 mmHg 70%

    20 July, Friday

    Time Temperature Precipitation Wind Pressure Humidity
    00:00 +33°C° 0 mm 3 mps 746 mmHg 72%
    01:00 +33°C° 0 mm 3 mps 745 mmHg 74%
    02:00 +31°C° 0 mm 3 mps 745 mmHg 77%
    03:00 +31°C° 0 mm 2 mps 744 mmHg 79%
    04:00 +31°C° 0 mm 2 mps 744 mmHg 80%
    05:00 +31°C° 0 mm 1 mps 745 mmHg 81%
    06:00 +30°C° 0 mm 1 mps 745 mmHg 82%
    07:00 +32°C° 0 mm 1 mps 745 mmHg 76%
    08:00 +34°C° 0 mm 2 mps 745 mmHg 70%
    09:00 +35°C° 0 mm 2 mps 746 mmHg 64%
    10:00 +36°C° 0 mm 2 mps 746 mmHg 59%
    11:00 +38°C° 0 mm 3 mps 745 mmHg 54%
    12:00 +39°C° 0 mm 3 mps 745 mmHg 49%
    13:00 +39°C° 0 mm 3 mps 744 mmHg 48%
    14:00 +39°C° 0 mm 2 mps 744 mmHg 48%
    15:00 +39°C° 0 mm 2 mps 743 mmHg 47%
    16:00 +39°C° 0 mm 2 mps 743 mmHg 49%
    17:00 +39°C° 0 mm 2 mps 743 mmHg 51%
    18:00 +38°C° 0 mm 2 mps 742 mmHg 53%
    19:00 +37°C° 0 mm 2 mps 743 mmHg 56%
    20:00 +36°C° 0 mm 2 mps 744 mmHg 58%
    21:00 +35°C° 0 mm 2 mps 744 mmHg 61%
    22:00 +35°C° 0.1 mm 3 mps 744 mmHg 64%
    23:00 +34°C° 0.1 mm 3 mps 745 mmHg 67%

    21 July, Saturday

    Time Temperature Precipitation Wind Pressure Humidity
    00:00 +34°C° 0.1 mm 4 mps 745 mmHg 70%
    01:00 +33°C° 0 mm 3 mps 744 mmHg 72%
    02:00 +33°C° 0 mm 3 mps 744 mmHg 74%
    03:00 +31°C° 0 mm 2 mps 743 mmHg 76%
    04:00 +31°C° 0 mm 2 mps 744 mmHg 77%
    05:00 +31°C° 0 mm 2 mps 744 mmHg 78%
    06:00 +31°C° 0 mm 2 mps 744 mmHg 80%
    07:00 +32°C° 0 mm 2 mps 744 mmHg 75%
    08:00 +34°C° 0 mm 2 mps 744 mmHg 70%
    09:00 +35°C° 0 mm 2 mps 745 mmHg 64%
    10:00 +36°C° 0.2 mm 2 mps 745 mmHg 61%
    11:00 +37°C° 0.2 mm 2 mps 744 mmHg 57%
    12:00 +38°C° 0.2 mm 2 mps 744 mmHg 53%
    13:00 +39°C° 0 mm 2 mps 744 mmHg 52%
    14:00 +39°C° 0 mm 1 mps 743 mmHg 51%
    15:00 +39°C° 0 mm 1 mps 742 mmHg 49%
    16:00 +39°C° 0 mm 1 mps 742 mmHg 51%
    17:00 +39°C° 0 mm 1 mps 742 mmHg 53%
    18:00 +37°C° 0 mm 1 mps 742 mmHg 54%
    19:00 +37°C° 0.1 mm 1 mps 743 mmHg 56%
    20:00 +36°C° 0.1 mm 1 mps 743 mmHg 59%
    21:00 +36°C° 0.1 mm 2 mps 744 mmHg 61%
    22:00 +35°C° 1.5 mm 2 mps 744 mmHg 65%
    23:00 +34°C° 1.5 mm 2 mps 744 mmHg 70%

    22 July, Sunday

    Time Temperature Precipitation Wind Pressure Humidity
    00:00 +32°C° 1.5 mm 2 mps 744 mmHg 75%
    01:00 +32°C° 1.9 mm 2 mps 743 mmHg 77%
    02:00 +32°C° 1.9 mm 2 mps 743 mmHg 80%
    03:00 +31°C° 1.9 mm 2 mps 743 mmHg 82%
    04:00 +31°C° 1.1 mm 1 mps 743 mmHg 84%
    05:00 +31°C° 1.1 mm 1 mps 743 mmHg 85%
    06:00 +31°C° 1.1 mm 1 mps 743 mmHg 86%
    07:00 +32°C° 2 mm 1 mps 744 mmHg 82%
    08:00 +32°C° 2 mm 2 mps 744 mmHg 77%
    09:00 +34°C° 2 mm 2 mps 744 mmHg 73%
    10:00 +35°C° 1.7 mm 3 mps 744 mmHg 69%
    11:00 +36°C° 1.7 mm 3 mps 744 mmHg 65%
    12:00 +37°C° 1.7 mm 4 mps 744 mmHg 61%
    13:00 +36°C° 2.2 mm 3 mps 743 mmHg 63%
    14:00 +36°C° 2.2 mm 3 mps 742 mmHg 66%
    15:00 +36°C° 2.2 mm 3 mps 741 mmHg 68%
    16:00 +35°C° 2.4 mm 3 mps 741 mmHg 71%
    17:00 +35°C° 2.4 mm 3 mps 741 mmHg 73%
    18:00 +34°C° 2.4 mm 2 mps 741 mmHg 76%
    19:00 +33°C° 0.8 mm 3 mps 742 mmHg 78%
    20:00 +33°C° 0.8 mm 3 mps 742 mmHg 80%
    21:00 +31°C° 0.8 mm 3 mps 743 mmHg 81%
    22:00 +30°C° 0 mm 3 mps 743 mmHg 83%
    23:00 +30°C° 0 mm 3 mps 743 mmHg 85%
    Show more